TimeCDT,TemperatureF,Dew PointF,Humidity,Sea Level PressureIn,VisibilityMPH,Wind Direction,Wind SpeedMPH,Gust SpeedMPH,PrecipitationIn,Events,Conditions,WindDirDegrees,DateUTC
12:51 AM,42.1,30.0,62,29.94,10.0,WNW,9.2,-,N/A,,Clear,290,2012-10-31 05:51:00
1:51 AM,41.0,30.0,65,29.94,10.0,WNW,9.2,-,N/A,,Clear,290,2012-10-31 06:51:00
2:51 AM,41.0,28.9,62,29.94,10.0,WNW,8.1,-,N/A,,Clear,300,2012-10-31 07:51:00
3:51 AM,39.0,28.9,67,29.94,10.0,WNW,5.8,-,N/A,,Clear,300,2012-10-31 08:51:00
4:51 AM,37.9,28.9,70,29.94,10.0,WNW,6.9,-,N/A,,Clear,290,2012-10-31 09:51:00
5:51 AM,36.0,28.0,73,29.95,10.0,WNW,4.6,-,N/A,,Clear,300,2012-10-31 10:51:00
6:51 AM,36.0,27.0,70,29.96,10.0,WNW,4.6,-,N/A,,Clear,290,2012-10-31 11:51:00
7:51 AM,36.0,28.0,73,29.98,10.0,WNW,6.9,-,N/A,,Scattered Clouds,290,2012-10-31 12:51:00
8:51 AM,39.9,28.9,65,29.99,10.0,WNW,8.1,-,N/A,,Scattered Clouds,300,2012-10-31 13:51:00
9:51 AM,43.0,30.0,60,30.00,10.0,WNW,9.2,-,N/A,,Partly Cloudy,290,2012-10-31 14:51:00
10:51 AM,45.0,27.0,49,30.01,10.0,NW,9.2,-,N/A,,Partly Cloudy,320,2012-10-31 15:51:00
11:51 AM,48.9,27.0,43,30.00,10.0,WNW,11.5,19.6,N/A,,Partly Cloudy,290,2012-10-31 16:51:00
12:51 PM,52.0,25.0,35,29.98,10.0,West,12.7,-,N/A,,Partly Cloudy,280,2012-10-31 17:51:00
1:51 PM,55.0,21.9,28,29.96,10.0,WNW,11.5,21.9,N/A,,Partly Cloudy,300,2012-10-31 18:51:00
2:51 PM,55.9,21.9,27,29.95,10.0,WNW,15.0,-,N/A,,Partly Cloudy,290,2012-10-31 19:51:00
3:51 PM,57.0,19.0,23,29.95,10.0,WNW,11.5,-,N/A,,Partly Cloudy,290,2012-10-31 20:51:00
4:51 PM,55.9,19.0,24,29.95,10.0,WNW,11.5,-,N/A,,Partly Cloudy,290,2012-10-31 21:51:00
5:51 PM,52.0,19.0,27,29.96,10.0,WNW,9.2,-,N/A,,Scattered Clouds,290,2012-10-31 22:51:00
6:51 PM,46.9,21.0,36,29.97,10.0,WNW,6.9,-,N/A,,Scattered Clouds,290,2012-10-31 23:51:00
7:51 PM,46.9,19.9,34,29.99,10.0,WNW,5.8,-,N/A,,Partly Cloudy,300,2012-11-01 00:51:00
8:51 PM,45.0,21.0,39,29.99,10.0,WNW,9.2,-,N/A,,Scattered Clouds,290,2012-11-01 01:51:00
9:51 PM,44.1,21.9,42,30.00,10.0,WNW,6.9,-,N/A,,Partly Cloudy,300,2012-11-01 02:51:00
10:51 PM,42.1,21.9,45,30.00,10.0,WNW,5.8,-,N/A,,Clear,290,2012-11-01 03:51:00
11:51 PM,42.1,23.0,47,30.00,10.0,WNW,6.9,-,N/A,,Clear,290,2012-11-01 04:51:00